Wind_Speed
8 8 7 7 6 7 7 8 10 16 19 21 21 20 19 17 13 11 9 7 8 8 7 7 7 6 6 5 4 3 2 3 4 4 5 5 6 6 7 7 7 7 7 7 7 6 6 6 6
8 8 8 7 6 7 9 10 14 19 22 23 23 22 19 16 14 12 11 7 7 8 8 8 8 7 6 5 4 4 3 3 4 5 6 6 7 8 7 8 8 8 8 8 8 7 7 7 7
7 8 7 7 6 8 9 12 17 22 24 25 25 22 20 16 12 11 10 9 8 9 9 9 9 8 7 6 5 4 4 4 5 6 6 7 8 8 8 8 8 9 9 9 9 8 8 8 7
7 7 7 6 6 9 11 14 18 22 25 25 25 22 20 16 12 10 9 8 8 10 10 10 10 9 8 7 6 5 4 5 5 6 6 7 7 8 8 9 9 10 10 10 10 9 9 9 8
7 6 6 7 9 10 13 17 20 22 23 24 23 21 20 17 13 11 10 10 10 10 11 11 11 10 9 8 7 6 5 5 5 6 6 7 8 9 9 10 10 10 10 11 11 10 10 10 9
6 6 7 9 10 11 13 17 20 22 22 22 22 21 19 16 12 10 9 10 11 11 11 12 12 11 10 9 8 6 5 6 6 6 7 8 8 9 10 10 10 10 11 11 11 11 11 10 10
6 7 8 8 9 10 13 17 20 21 22 21 21 20 17 14 13 11 11 11 12 13 13 13 13 13 11 9 8 7 6 6 6 7 8 8 9 9 10 10 10 10 10 10 10 10 10 10 10
6 7 7 7 9 10 14 18 21 22 21 20 20 19 17 16 14 13 12 13 13 13 14 15 15 14 12 10 8 7 7 7 7 7 8 8 9 10 10 10 10 10 9 9 9 10 10 10 10
5 5 5 7 9 12 15 18 19 20 20 19 18 18 18 16 13 11 12 13 13 14 15 16 16 15 13 11 9 9 8 8 8 8 8 9 9 10 10 9 9 9 8 8 8 9 10 10 10
5 3 5 7 9 13 15 18 20 20 20 20 19 19 19 17 14 11 12 14 14 15 16 17 17 16 14 12 11 10 9 9 8 8 8 9 9 9 9 8 8 8 8 8 8 8 9 10 10
5 3 4 6 9 12 15 17 19 20 20 20 21 19 17 17 14 12 12 14 17 19 19 19 19 18 16 14 12 11 11 10 9 8 8 9 8 8 8 7 7 7 7 7 7 8 8 9 9
5 4 4 7 9 12 15 17 17 19 20 22 22 20 17 18 17 14 13 15 19 20 20 21 23 21 18 16 13 11 11 10 9 8 8 8 8 7 6 6 5 6 6 6 6 7 7 7 7
7 8 7 9 11 13 15 17 18 19 20 21 21 20 19 19 18 15 13 14 19 20 20 20 23 22 20 17 14 12 11 11 9 8 8 8 7 6 5 5 5 5 5 5 5 5 6 6 5
7 9 10 10 13 15 17 19 20 21 21 22 21 20 20 18 18 16 15 13 15 20 21 22 23 23 21 18 16 14 13 11 10 8 8 7 6 5 5 4 4 3 3 3 3 3 3 4 4
4 6 9 12 15 17 19 20 21 22 22 23 22 21 20 18 17 14 11 14 15 18 21 22 23 23 21 19 16 15 14 12 9 8 7 6 5 4 3 3 3 3 2 2 2 2 2 2 2
4 7 11 15 18 19 20 20 21 22 22 24 23 21 20 18 15 12 10 12 16 17 19 21 22 21 20 18 16 15 13 11 10 8 7 6 5 4 2 2 2 1 1 1 1 1 1 1 1
5 10 14 18 19 20 21 20 22 23 23 23 22 21 19 17 13 11 10 10 13 16 20 20 21 20 19 18 16 15 13 12 10 9 7 6 5 4 3 2 1 1 1 1 1 1 2 1 1
6 10 14 18 19 20 20 21 22 24 23 23 22 21 18 16 13 11 8 8 11 14 18 20 20 20 19 18 17 15 13 12 10 9 8 7 6 5 4 3 2 2 2 3 3 3 3 3 3
8 11 14 19 20 21 22 23 22 23 22 20 20 18 16 14 12 10 4 7 9 14 15 19 19 19 18 17 17 15 14 12 11 10 9 8 7 6 5 4 4 4 4 5 5 5 5 4 4
8 11 14 18 21 23 24 23 21 23 21 18 17 15 13 13 11 9 3 3 7 12 14 17 18 18 17 17 16 15 13 12 11 11 10 9 8 7 6 6 5 5 5 5 5 5 5 4 4
7 11 15 19 21 22 24 22 22 20 17 16 14 13 12 12 10 8 4 3 6 9 11 14 18 16 16 16 15 14 13 12 11 11 11 10 9 8 8 7 7 6 6 5 5 4 4 4 3
9 12 16 17 19 21 22 24 20 15 13 12 11 11 11 11 10 9 6 3 5 8 11 13 16 17 17 16 15 14 14 13 12 12 11 11 10 9 9 8 8 7 6 5 4 3 3 3 2
10 12 15 17 19 21 21 21 17 12 10 9 10 11 10 10 9 8 7 5 5 8 11 12 14 17 17 16 15 14 14 13 13 12 12 11 11 11 11 10 9 8 7 6 5 4 3 3 3
10 14 16 18 19 20 20 19 16 13 10 8 8 9 10 9 9 7 6 6 6 7 9 11 14 15 16 15 15 14 14 14 13 13 13 12 12 12 12 12 11 10 9 8 7 6 6 6 5
11 14 17 18 19 19 19 18 16 12 9 8 8 8 8 8 8 7 6 5 5 6 8 10 11 13 14 14 15 14 15 14 14 14 13 14 14 14 13 13 12 12 12 11 11 10 9 9 9
11 14 17 19 19 21 19 19 16 13 10 9 9 9 7 7 7 6 5 5 5 6 7 8 9 11 13 15 15 15 15 15 15 15 15 15 15 15 14 14 14 14 14 14 13 13 13 13 13
14 14 16 19 20 22 21 19 15 12 10 9 9 9 7 6 5 4 4 3 4 4 5 7 9 10 12 13 15 15 15 15 15 15 16 16 16 16 16 16 16 16 16 16 16 16 16 17 17
16 17 18 19 22 23 23 20 17 15 13 11 8 8 7 5 4 3 3 2 1 2 3 6 9 11 11 12 13 14 14 15 15 16 17 17 17 18 18 18 18 18 18 19 19 20 20 20 21
20 19 21 22 23 25 25 23 19 16 14 10 8 8 6 3 3 3 4 2 1 2 3 5 7 9 11 12 13 14 14 15 16 17 18 18 19 20 20 20 21 21 21 22 22 23 23 23 24
24 24 24 24 25 26 27 23 19 16 13 12 11 9 7 5 4 4 5 4 4 4 4 6 8 9 10 13 14 14 15 16 17 18 19 19 21 22 22 23 23 24 24 25 25 26 26 26 27
Wind_Direction
338 332 332 334 329 324 320 325 331 336 337 333 331 323 316 311 304 287 274 247 217 203 197 193 191 194 197 198 204 223 255 273 277 288 292 296 297 297 297 297 300 301 300 300 303 310 313 314 318
332 327 327 329 325 314 314 324 330 332 327 326 325 320 314 305 300 283 269 255 230 209 202 195 193 197 200 200 201 217 241 261 273 282 289 294 295 295 295 294 296 297 296 297 298 301 303 304 307
329 326 324 327 316 309 317 329 332 327 324 322 322 321 315 302 289 274 265 248 237 221 211 202 198 199 199 196 196 207 235 260 274 278 285 292 294 293 292 292 293 294 293 294 294 294 296 297 297
327 321 320 316 308 310 321 333 331 323 320 319 318 317 315 308 295 276 258 235 229 223 215 205 202 200 197 197 199 207 236 262 272 274 282 287 291 292 293 293 293 294 293 291 288 287 289 290 289
322 313 305 297 306 317 330 331 325 321 319 317 315 313 309 306 297 279 260 238 227 220 215 205 202 200 201 203 207 215 236 253 264 275 283 287 291 293 295 296 295 294 293 291 287 285 283 283 283
309 295 283 292 311 327 332 326 322 320 317 316 316 312 307 307 296 277 254 231 221 215 210 205 202 203 204 207 213 221 234 246 258 274 284 289 292 295 297 298 296 295 295 293 289 284 281 280 278
298 286 284 300 321 335 329 323 322 321 319 320 319 314 305 300 292 276 250 232 223 213 208 208 204 205 206 208 214 222 235 247 260 274 284 290 295 297 298 297 297 297 295 293 289 284 282 279 278
294 288 293 319 334 333 325 322 324 326 325 322 321 317 310 302 292 275 248 236 219 211 211 210 205 205 207 210 215 226 238 250 263 276 285 292 295 298 298 298 298 297 294 291 288 284 283 281 279
298 289 313 333 342 335 329 328 329 333 333 331 328 319 313 310 301 279 244 233 226 215 213 212 209 208 208 210 218 229 242 254 264 275 284 291 293 295 299 300 297 296 294 292 289 283 282 280 279
284 297 336 345 347 340 333 331 334 335 336 334 331 324 312 309 301 279 249 236 225 216 214 211 210 209 211 215 222 229 243 255 262 272 284 290 291 294 300 298 294 293 292 292 290 287 285 282 278
286 315 354 351 339 334 329 333 337 339 340 338 334 329 319 314 300 284 255 235 225 217 213 213 210 210 211 215 221 229 242 252 260 268 281 286 288 293 297 294 291 291 290 291 288 285 289 285 277
315 328 344 350 342 338 335 339 343 339 340 340 337 330 318 318 307 289 260 234 221 217 214 213 212 212 211 214 220 230 241 251 257 263 272 280 287 290 295 294 291 290 293 292 284 283 286 284 277
1 2 353 347 348 342 340 346 345 340 340 341 337 329 320 313 309 293 267 238 220 216 215 214 214 213 213 213 221 229 240 248 252 262 267 271 277 281 286 288 287 293 297 292 288 287 287 283 283
18 12 4 359 353 347 345 347 347 348 345 344 342 335 326 317 310 295 272 253 224 217 217 217 216 212 213 215 221 230 240 247 250 255 262 266 270 270 268 273 283 291 292 289 293 294 291 287 286
11 3 1 352 347 346 345 349 350 353 349 343 342 340 333 322 307 297 271 247 236 221 216 210 209 212 213 215 219 227 236 240 241 245 251 252 255 260 260 256 271 280 276 274 273 273 276 291 291
342 347 349 349 345 341 341 345 346 348 348 343 341 340 336 331 312 300 273 241 233 224 209 204 208 210 210 211 216 222 229 228 233 235 232 230 239 253 247 240 252 238 230 234 231 224 222 250 307
322 345 348 345 343 341 339 340 341 341 342 340 340 341 338 338 324 306 287 253 227 215 203 204 207 206 208 212 214 216 221 223 225 224 219 220 227 235 222 211 193 178 180 182 158 150 148 138 114
336 350 342 336 338 334 334 335 334 335 340 340 340 341 345 345 338 321 284 239 210 204 204 202 204 205 209 209 208 212 216 219 220 219 212 215 221 215 205 186 163 150 146 136 127 122 124 120 107
344 342 331 327 330 326 325 326 329 328 333 338 339 343 347 351 352 342 303 208 198 195 198 199 199 202 202 203 204 207 211 214 218 214 211 212 210 204 193 180 162 147 138 131 122 118 117 116 109
336 325 319 319 322 323 321 321 325 326 328 336 343 349 354 359 4 5 9 199 189 189 190 190 190 193 197 199 201 202 208 212 211 209 207 205 205 201 191 177 167 157 147 139 130 125 122 121 116
310 308 309 313 318 321 321 320 318 323 329 336 344 354 360 6 12 21 39 116 165 174 181 185 189 188 189 194 194 197 201 202 206 205 201 203 204 201 194 184 178 171 163 153 143 137 134 132 128
286 290 298 305 311 315 318 322 324 324 332 340 350 2 9 12 17 29 43 98 150 170 176 181 186 184 184 188 192 195 198 202 204 203 202 206 206 201 195 190 189 187 186 182 174 173 169 160 158
272 282 290 300 309 316 322 327 337 341 342 348 355 8 19 24 25 32 48 86 128 160 172 177 182 185 187 189 194 199 203 206 206 204 204 207 205 202 200 200 202 202 204 209 213 219 221 216 224
260 277 286 296 308 315 322 332 341 346 351 358 7 12 23 30 34 38 56 88 122 144 161 170 178 184 188 194 199 204 207 208 210 208 208 209 208 209 209 212 214 219 224 230 236 242 246 249 255
254 275 288 295 305 315 324 336 343 344 352 358 12 17 24 27 38 45 56 84 125 145 159 168 177 186 194 198 200 203 207 209 210 211 213 216 217 218 217 218 224 230 235 240 244 249 254 257 262
256 271 285 296 304 312 320 329 336 341 346 352 5 10 18 25 32 40 50 72 103 142 161 172 182 191 198 202 203 206 210 212 214 217 221 223 224 224 224 227 232 237 241 245 250 254 258 261 265
260 266 281 288 295 303 311 320 329 331 335 346 2 9 13 11 16 28 39 65 95 123 162 183 193 197 199 201 208 212 215 217 220 223 227 229 231 233 235 237 240 245 249 252 256 259 262 264 267
259 267 276 283 289 295 301 307 314 321 330 334 348 2 6 357 352 360 4 30 107 133 173 196 204 207 207 209 211 214 217 223 228 230 232 234 237 241 243 246 249 251 254 257 260 262 264 265 268
254 262 271 278 286 291 295 301 307 312 319 323 332 343 348 344 339 336 326 308 254 230 217 208 211 215 218 219 220 222 226 231 235 237 238 240 244 247 249 251 253 255 258 259 261 263 265 266 268
253 258 266 275 283 284 287 292 299 306 309 318 322 323 319 312 309 307 307 288 265 249 238 224 222 226 228 229 229 231 237 242 245 245 246 248 250 252 253 255 256 257 258 260 261 263 264 266 268
Height
5908 5906 5905 5905 5904 5902 5900 5898 5897 5895 5894 5895 5895 5894 5893 5893 5894 5896 5894 5892 5893 5894 5895 5896 5897 5898 5900 5901 5902 5903 5904 5904 5904 5905 5905 5905 5904 5904 5903 5902 5902 5901 5900 5899 5899 5898 5897 5897 5896
5908 5906 5905 5904 5902 5900 5899 5897 5896 5895 5894 5893 5892 5892 5891 5890 5891 5891 5890 5891 5892 5893 5894 5895 5896 5897 5898 5900 5901 5902 5903 5903 5904 5904 5904 5904 5904 5903 5903 5902 5901 5901 5900 5899 5898 5897 5897 5896 5896
5907 5905 5905 5903 5901 5899 5898 5895 5895 5893 5892 5890 5890 5889 5888 5887 5888 5887 5887 5888 5890 5891 5892 5894 5895 5896 5897 5899 5900 5901 5902 5903 5903 5903 5904 5903 5903 5903 5902 5902 5901 5900 5899 5898 5898 5897 5896 5895 5895
5907 5905 5904 5903 5900 5898 5896 5894 5893 5892 5890 5889 5887 5886 5885 5885 5885 5884 5884 5885 5887 5889 5890 5892 5893 5895 5896 5898 5899 5900 5901 5902 5902 5902 5903 5903 5902 5902 5901 5901 5900 5899 5898 5897 5897 5896 5895 5895 5894
5906 5905 5903 5901 5899 5897 5894 5893 5893 5892 5890 5887 5885 5883 5882 5881 5881 5881 5881 5882 5884 5886 5888 5890 5891 5893 5895 5897 5898 5899 5900 5901 5901 5902 5902 5902 5901 5901 5900 5899 5899 5898 5897 5896 5895 5894 5894 5893 5893
5905 5904 5903 5900 5898 5896 5894 5893 5892 5890 5888 5885 5883 5880 5879 5878 5878 5878 5878 5880 5881 5883 5885 5888 5890 5892 5894 5895 5897 5898 5899 5900 5900 5900 5901 5900 5900 5899 5898 5898 5897 5896 5895 5894 5894 5893 5892 5891 5891
5904 5903 5901 5899 5897 5895 5894 5893 5891 5888 5885 5883 5880 5877 5875 5875 5876 5875 5874 5876 5878 5880 5883 5886 5888 5890 5892 5894 5895 5897 5897 5898 5899 5899 5899 5899 5898 5897 5897 5896 5895 5895 5894 5893 5892 5891 5890 5889 5890
5903 5902 5900 5898 5896 5895 5894 5892 5889 5886 5883 5880 5878 5875 5872 5872 5871 5870 5870 5872 5875 5877 5880 5883 5886 5888 5890 5892 5894 5895 5896 5896 5897 5897 5897 5897 5896 5896 5895 5894 5894 5893 5892 5891 5890 5889 5888 5888 5888
5902 5902 5899 5897 5896 5894 5892 5890 5887 5884 5881 5878 5875 5873 5869 5867 5868 5868 5867 5869 5872 5874 5877 5881 5883 5886 5888 5890 5892 5893 5894 5895 5895 5896 5896 5895 5895 5894 5893 5893 5892 5891 5890 5889 5889 5888 5887 5886 5886
5901 5899 5898 5896 5895 5893 5891 5888 5885 5882 5878 5875 5873 5870 5866 5863 5863 5864 5865 5866 5869 5872 5875 5878 5881 5884 5886 5888 5890 5891 5892 5893 5893 5894 5894 5893 5893 5892 5892 5891 5890 5889 5889 5888 5887 5886 5885 5885 5884
5899 5898 5896 5895 5894 5892 5889 5886 5883 5880 5876 5873 5869 5866 5862 5860 5858 5860 5861 5863 5865 5868 5871 5874 5878 5881 5883 5886 5887 5889 5890 5890 5891 5892 5892 5892 5891 5891 5890 5890 5889 5888 5887 5887 5886 5885 5884 5883 5882
5898 5896 5895 5893 5892 5890 5887 5885 5882 5878 5875 5871 5866 5863 5860 5857 5855 5856 5857 5859 5862 5864 5867 5871 5874 5877 5880 5883 5885 5886 5887 5888 5889 5890 5890 5890 5890 5889 5889 5888 5887 5887 5886 5885 5885 5884 5883 5882 5881
5897 5896 5894 5892 5890 5888 5886 5883 5880 5876 5873 5869 5865 5861 5857 5854 5851 5850 5850 5854 5856 5859 5863 5867 5871 5874 5876 5880 5883 5884 5885 5886 5887 5887 5888 5888 5888 5888 5887 5887 5886 5886 5885 5884 5884 5883 5882 5881 5880
5897 5895 5894 5891 5889 5886 5883 5881 5877 5874 5871 5867 5863 5858 5854 5850 5847 5846 5846 5847 5851 5854 5858 5862 5866 5869 5873 5877 5880 5882 5883 5883 5884 5885 5886 5886 5886 5886 5886 5886 5885 5885 5884 5883 5883 5882 5881 5880 5880
5895 5894 5892 5890 5887 5884 5881 5879 5875 5872 5868 5864 5860 5856 5851 5847 5844 5842 5842 5844 5847 5850 5853 5857 5862 5866 5869 5873 5877 5879 5880 5881 5882 5883 5883 5884 5885 5885 5885 5885 5884 5884 5883 5882 5882 5881 5881 5880 5880
5894 5892 5889 5888 5885 5882 5880 5877 5873 5870 5866 5862 5858 5853 5849 5845 5841 5839 5838 5839 5842 5845 5849 5854 5859 5863 5867 5871 5874 5876 5877 5878 5880 5881 5881 5882 5883 5884 5884 5884 5883 5883 5882 5882 5881 5881 5881 5880 5880
5891 5889 5887 5886 5883 5880 5878 5874 5871 5868 5864 5861 5857 5852 5847 5843 5839 5837 5835 5834 5837 5840 5845 5851 5856 5860 5864 5868 5870 5873 5874 5876 5877 5879 5880 5881 5882 5882 5883 5883 5882 5882 5882 5881 5881 5881 5881 5880 5880
5888 5887 5885 5883 5882 5879 5876 5873 5870 5866 5863 5860 5855 5851 5846 5842 5838 5835 5833 5832 5834 5838 5842 5848 5852 5857 5862 5865 5868 5870 5872 5874 5875 5877 5878 5879 5881 5881 5882 5882 5882 5881 5881 5881 5881 5881 5881 5881 5880
5886 5885 5884 5882 5880 5877 5874 5871 5869 5866 5862 5858 5854 5850 5845 5842 5838 5835 5832 5833 5833 5837 5841 5846 5850 5855 5859 5863 5865 5868 5870 5872 5873 5875 5876 5878 5879 5880 5881 5881 5881 5881 5881 5881 5881 5881 5881 5881 5881
5884 5884 5883 5882 5879 5876 5872 5870 5867 5864 5861 5857 5852 5849 5845 5842 5838 5835 5833 5832 5833 5836 5840 5844 5848 5853 5857 5860 5863 5866 5868 5870 5871 5873 5875 5876 5878 5879 5880 5880 5881 5881 5881 5881 5881 5882 5881 5881 5881
5882 5883 5882 5880 5877 5874 5871 5869 5865 5864 5860 5856 5852 5848 5844 5841 5839 5836 5834 5833 5835 5837 5839 5843 5847 5851 5854 5858 5861 5864 5866 5868 5870 5872 5874 5875 5876 5877 5878 5879 5880 5881 5881 5881 5881 5882 5882 5882 5882
5879 5880 5879 5877 5876 5873 5871 5866 5863 5861 5858 5854 5851 5847 5844 5841 5839 5836 5835 5834 5835 5837 5839 5842 5845 5849 5852 5856 5859 5862 5864 5866 5869 5870 5872 5874 5875 5876 5877 5878 5879 5880 5880 5881 5881 5881 5881 5881 5882
5875 5876 5875 5874 5873 5871 5868 5865 5863 5859 5856 5853 5850 5846 5843 5841 5839 5838 5835 5835 5836 5837 5840 5842 5844 5848 5851 5855 5858 5860 5863 5865 5867 5869 5870 5872 5873 5875 5876 5877 5878 5879 5879 5880 5880 5880 5880 5881 5881
5873 5873 5872 5871 5870 5869 5866 5864 5861 5858 5855 5851 5849 5846 5844 5842 5841 5839 5838 5838 5838 5839 5840 5842 5844 5847 5850 5853 5856 5859 5861 5863 5865 5867 5868 5870 5871 5873 5874 5875 5876 5877 5877 5878 5878 5878 5879 5879 5879
5870 5870 5869 5868 5867 5865 5863 5861 5860 5857 5854 5851 5849 5847 5844 5843 5842 5841 5840 5839 5839 5840 5841 5842 5844 5847 5849 5852 5854 5857 5859 5862 5863 5865 5866 5868 5869 5870 5871 5872 5874 5874 5875 5876 5876 5876 5876 5876 5876
5867 5867 5867 5865 5864 5862 5860 5859 5859 5856 5854 5851 5849 5846 5844 5843 5842 5842 5841 5840 5840 5840 5841 5843 5844 5846 5848 5851 5853 5856 5858 5859 5861 5863 5864 5865 5867 5868 5869 5870 5871 5871 5872 5872 5873 5873 5873 5873 5873
5861 5862 5863 5862 5860 5859 5858 5857 5856 5854 5853 5850 5848 5846 5844 5844 5843 5843 5842 5841 5841 5841 5841 5842 5844 5846 5847 5849 5851 5853 5855 5857 5859 5860 5862 5863 5864 5864 5865 5866 5867 5868 5868 5869 5869 5869 5869 5869 5868
5858 5858 5858 5858 5857 5855 5854 5854 5854 5852 5850 5849 5847 5846 5844 5843 5843 5843 5843 5842 5842 5841 5841 5842 5843 5845 5846 5848 5850 5852 5853 5855 5857 5858 5859 5860 5860 5861 5862 5862 5863 5863 5864 5864 5864 5864 5864 5863 5863
5854 5854 5854 5853 5853 5852 5850 5852 5850 5849 5847 5847 5846 5845 5844 5843 5842 5842 5842 5842 5841 5841 5841 5841 5843 5844 5845 5846 5848 5849 5851 5852 5853 5854 5855 5856 5857 5857 5857 5858 5858 5858 5858 5858 5858 5858 5857 5857 5856
5848 5848 5849 5849 5849 5847 5847 5849 5847 5846 5845 5845 5844 5843 5842 5842 5841 5841 5841 5841 5840 5840 5839 5840 5841 5842 5843 5844 5845 5847 5848 5849 5850 5851 5852 5852 5852 5852 5852 5852 5852 5852 5852 5852 5852 5851 5850 5850 5849